Regional Weather Roundup
Issued by NWS Sioux Falls, SD

Home | Current Version | Previous Version | Text Only | Print | Product List | Glossary Off
Versions: 1 2 3 4 5 6 7 8 9 10 11 12 13 14 15 16 17 18 19 20 21 22 23 24 25 26 27 28 29 30 31 32 33 34 35 36 37 38 39 40 41 42 43 44 45 46 47 48 49 50

000
ASUS43 KFSD 301802
RWRFSD

WEATHER ROUNDUP FOR SE SOUTH DAKOTA/SW MINNESOTA/NW IOWA
NATIONAL WEATHER SERVICE SIOUX FALLS SD
100 PM CDT TUE SEP 30 2014

NOTE: "FAIR" INDICATES FEW OR NO CLOUDS BELOW 12,000 FEET WITH NO
SIGNIFICANT WEATHER AND OR OBSTRUCTIONS TO VISIBILITY.


SDZ038>040-050-052>070-301900-
SOUTHEAST SOUTH DAKOTA

CITY           SKY/WX    TMP DP  RH WIND       PRES   REMARKS
CHAMBERLAIN    SUNNY     73  49  42 S25G32    29.57F
6HR MIN TEMP:  58; 6HR MAX TEMP:  73;

HURON          CLOUDY    64  59  83 SE20G31   29.64F
6HR MIN TEMP:  54; 6HR MAX TEMP:  64; 6HR PCP:  0.36;

MADISON        MOCLDY    57  57 100 SE20G29   29.76F
MITCHELL       MOSUNNY   71  62  73 SE22G31   29.67F
6HR MIN TEMP:  55; 6HR MAX TEMP:  71; 6HR PCP:  0.15;

SIOUX FALLS    LGT RAIN  60  58  92 SE18G26   29.78F FOG
6HR MIN TEMP:  52; 6HR MAX TEMP:  60; 6HR PCP:  0.15;

WINNER         FAIR      73  45  36 SW29G39   29.56F
YANKTON        CLOUDY    72  63  73 S17G25    29.73F
$$

MNZ071-072-080-081-089-090-097-098-301900-
SOUTHWEST MINNESOTA

CITY           SKY/WX    TMP DP  RH WIND       PRES   REMARKS
FAIRMONT       CLOUDY    55  48  76 SE13G20   29.93F
JACKSON        CLOUDY    55  50  82 SE17      29.91F
LUVERNE        LGT RAIN  61  55  82 SE12G18   29.84F
MARSHALL       CLOUDY    54  45  71 SE17      29.86F
6HR MIN TEMP:  46; 6HR MAX TEMP:  54;

MONTEVIDEO     CLOUDY    48  45  87 S20G25    29.90S
PIPESTONE      LGT RAIN  59  55  88 SE15G24   29.83S
REDWOOD FALLS  CLOUDY    53  45  74 SE14G26   29.91F
TRACY          CLOUDY    57  51  80 SE14      29.88F
WINDOM         CLOUDY    57  50  77 SE17G23   29.90F
WORTHINGTON    CLOUDY    61  52  72 SE18      29.89S
$$

IAZ001>003-012>014-020>022-031-032-NEZ013-014-SDZ071-301900-
NORTHWEST IOWA

CITY           SKY/WX    TMP DP  RH WIND       PRES   REMARKS
CHEROKEE       MOSUNNY   65  60  84 SE12      29.87F
DENISON        PTSUNNY   72  63  73 SE9       29.85F
ESTHERVILLE    CLOUDY    56  53  90 SE18      29.92F
LE MARS        DRIZZLE   64  61  88 SE9G16    29.83F
ORANGE CITY    CLOUDY    64  55  72 SE12      29.83F
SHELDON        CLOUDY    63  57  82 SE12G22   29.85F
SIOUX CITY     LGT RAIN  65  62  90 SE14      29.81F
6HR MIN TEMP:  57; 6HR MAX TEMP:  65; 6HR PCP:  0.11;

SPENCER        CLOUDY    59  54  83 SE13      29.90F
6HR MIN TEMP:  51; 6HR MAX TEMP:  59;

STORM LAKE     PTSUNNY   63  57  82 SE14      29.90F
$$

ABBREVIATIONS USED IN REMARKS
   TC - TEMPERATURE IN CELSIUS
  WCI - WIND CHILL INDEX
   HX - HEAT INDEX
  VSB - VISIBILITY




USA.gov is the U.S. government's official web portal to all federal, state and local government web resources and services.